Zurück zum Katalog

RADIO 7

AktivAmateurfunkPO
NORAD 13001·PAYLOAD·🇷🇺 Russia

Gestartet Dec 17, 1981 von Plesetsk Cosmodrome

Loading…

Nächste Überflüge (nächste 24 Stunden)

TLE

AktuellSource: Space-Track

Epoche: Sep 14, 2026, 13:54 UTC

1 13001U 81120E   26257.57974721  .00000022  00000-0  13556-3 0  9998
2 13001  82.9645 334.0875 0024047 181.3433 245.5049 12.08950748974240

Verfolge RADIO 7 in Echtzeit mit AllMySat

Download on the App Store